Siemreap, Cambodia

2:52 AM +07 on December 19, 2017 (GMT +0700)
Siem Reap

Weather History for VDSR - July, 2013

Change the Weather History Date:

Sunday, July 21, 2013

  Actual Average Record
Temperature  
Mean Temperature 83 °F -  
Max Temperature 89 °F - - ()
Min Temperature 77 °F - - ()
Cooling Degree Days 18    
Growing Degree Days 33 (Base 50)    
Moisture  
Dew Point 74 °F    
Average Humidity 75    
Maximum Humidity 89    
Minimum Humidity 59    
Precipitation  
Precipitation 0.00 in - - ()
Sea Level Pressure  
Sea Level Pressure 29.62 in    
Wind  
Wind Speed 5 mph ()    
Max Wind Speed 14 mph    
Max Gust Speed -    
Visibility 5.9 miles    
Events      
T = Trace of Precipitation, MM = Missing Value Source: Averaged Metar Reports

Daily Weather History Graph

Daily Weather History Graph

Search for Another Location

Airport or City:

Trip Planner

Search our weather history database for the weather conditions in past years. The results will help you decide how hot, cold, wet, or windy it might be!

Date:

Astronomy

Jul. 21, 2013 Rise Set
Actual Time 5:46 AM +07 6:34 PM +07
Civil Twilight 5:24 AM +07 6:57 PM +07
Nautical Twilight 4:57 AM +07 7:24 PM +07
Astronomical Twilight 4:29 AM +07 7:52 PM +07
Moon 5:07 PM +07 (7/21) 3:55 AM +07 (7/21)
Length of Visible Light 13h 33m
Length of Day
12h 47m
Waxing Gibbous, 96% of the Moon is Illuminated
Jul 21
Waxing Gibbous
Jul 23
Full
Jul 30
Last Quarter
Aug 7
New
Aug 14
First Quarter

Hourly Weather History & Observations

Time (+07) Temp. Heat Index Dew Point Humidity Pressure Visibility Wind Dir Wind Speed Gust Speed Precip Events Conditions
12:00 AM 77.0 °F - 73.4 °F 89% 29.68 in 5.6 mi SW 2.3 mph - N/A   Scattered Clouds
12:30 AM 77.0 °F - 73.4 °F 89% 29.68 in 5.6 mi WSW 3.5 mph - N/A   Scattered Clouds
1:00 AM 77.0 °F - 73.4 °F 89% 29.68 in 5.6 mi South 2.3 mph - N/A   Scattered Clouds
7:00 AM 77.0 °F - 73.4 °F 89% 29.65 in 5.6 mi Calm Calm - N/A   Mostly Cloudy
7:30 AM 78.8 °F - 73.4 °F 83% 29.65 in 5.6 mi Calm Calm - N/A   Mostly Cloudy
8:00 AM 78.8 °F - 73.4 °F 83% 29.65 in 5.6 mi Calm Calm - N/A   Mostly Cloudy
8:30 AM 80.6 °F 85.4 °F 73.4 °F 79% 29.65 in 5.6 mi Calm Calm - N/A   Mostly Cloudy
9:00 AM 80.6 °F 85.4 °F 73.4 °F 79% 29.65 in 5.6 mi WSW 4.6 mph - N/A   Mostly Cloudy
9:30 AM 80.6 °F 85.4 °F 73.4 °F 79% 29.65 in 5.6 mi WSW 4.6 mph - N/A   Mostly Cloudy
10:00 AM 82.4 °F 88.2 °F 73.4 °F 74% 29.65 in 5.6 mi SW 4.6 mph - N/A   Mostly Cloudy
10:30 AM 82.4 °F 89.5 °F 75.2 °F 79% 29.65 in 5.6 mi SW 5.8 mph - N/A   Mostly Cloudy
11:00 AM 86.0 °F 95.1 °F 75.2 °F 70% 29.65 in 6.2 mi WSW 9.2 mph - N/A   Mostly Cloudy
11:30 AM 87.8 °F 95.6 °F 73.4 °F 62% 29.65 in 6.2 mi West 9.2 mph - N/A   Mostly Cloudy
12:30 PM 87.8 °F 95.6 °F 73.4 °F 62% 29.62 in 6.2 mi West 11.5 mph - N/A   Mostly Cloudy
1:00 PM 87.8 °F 95.6 °F 73.4 °F 62% 29.62 in 6.2 mi West 10.4 mph - N/A   Mostly Cloudy
1:30 PM 87.8 °F 95.6 °F 73.4 °F 62% 29.62 in 6.2 mi West 8.1 mph - N/A   Mostly Cloudy
2:00 PM 87.8 °F 95.6 °F 73.4 °F 62% 29.59 in 6.2 mi West 9.2 mph - N/A   Mostly Cloudy
2:30 PM 89.6 °F 98.2 °F 73.4 °F 59% 29.56 in 6.2 mi West 11.5 mph - N/A   Mostly Cloudy
3:00 PM 87.8 °F 95.6 °F 73.4 °F 62% 29.56 in 6.2 mi West 10.4 mph - N/A   Scattered Clouds
3:30 PM 89.6 °F 98.2 °F 73.4 °F 59% 29.56 in 6.2 mi WSW 10.4 mph - N/A   Scattered Clouds
4:00 PM 87.8 °F 95.6 °F 73.4 °F 62% 29.53 in 6.2 mi WSW 10.4 mph - N/A   Scattered Clouds
4:30 PM 87.8 °F 95.6 °F 73.4 °F 62% 29.53 in 6.2 mi West 9.2 mph - N/A   Scattered Clouds
5:00 PM 87.8 °F 95.6 °F 73.4 °F 62% 29.53 in 6.2 mi West 9.2 mph - N/A   Scattered Clouds
5:30 PM 87.8 °F 97.6 °F 75.2 °F 66% 29.53 in 6.2 mi WSW 6.9 mph - N/A   Scattered Clouds
6:00 PM 87.8 °F 95.6 °F 73.4 °F 62% 29.56 in 6.2 mi West 8.1 mph - N/A   Scattered Clouds
6:30 PM 86.0 °F 95.1 °F 75.2 °F 70% 29.56 in 6.2 mi WSW 13.8 mph - N/A   Mostly Cloudy
7:00 PM 82.4 °F 87.2 °F 71.6 °F 70% 29.59 in 6.2 mi WSW 6.9 mph - N/A   Mostly Cloudy
7:30 PM 80.6 °F 85.4 °F 73.4 °F 79% 29.59 in 5.6 mi WSW 6.9 mph - N/A   Scattered Clouds
8:00 PM 78.8 °F - 73.4 °F 83% 29.62 in 5.6 mi SSW 4.6 mph - N/A   Scattered Clouds
8:30 PM 78.8 °F - 73.4 °F 83% 29.62 in 5.6 mi SSW 1.2 mph - N/A   Scattered Clouds
9:00 PM 78.8 °F - 73.4 °F 83% 29.62 in 5.6 mi Variable 1.2 mph - N/A   Scattered Clouds
9:30 PM 78.8 °F - 75.2 °F 89% 29.62 in 5.6 mi SW 2.3 mph - N/A   Scattered Clouds
10:00 PM 80.6 °F 86.2 °F 75.2 °F 84% 29.65 in 5.6 mi SW 6.9 mph - N/A   Scattered Clouds
10:30 PM 80.6 °F 86.2 °F 75.2 °F 84% 29.65 in 5.6 mi WSW 4.6 mph - N/A   Scattered Clouds
11:00 PM 78.8 °F - 75.2 °F 89% 29.65 in 5.6 mi WSW 5.8 mph - N/A   Scattered Clouds
11:30 PM 78.8 °F - 75.2 °F 89% 29.65 in 5.6 mi WSW 5.8 mph - N/A   Scattered Clouds